sat.trackr.live / text

‹ back to catalog

KUIPER-00301

NORAD 68598 · 2026-072AB

PAYLOAD ACTIVE UNKNOWN

§ Identity

Operator
Country
US
Launch date
2026-04-04
Launch site
AFETR
Launch vehicle
Mass (kg)
RCS (m²)

External: N2YO · Heavens-Above · Gunter

§ Orbital elements

Epoch: 2026-05-24T19:49:24.953664Z

Period
93.65 min
Inclination
51.8668°
Eccentricity
0.0009328
Mean motion
15.37643717 rev/d
Perigee alt
446.7 km
Apogee alt
459.5 km
Semi-major
6,831.2 km
B*
7.4328e-4
RAAN
290.0661°
Arg perigee
301.3869°
Mean anomaly
58.6204°
Rev number
778

§ Raw data

KUIPER-003011 68598U 26072AB  26144.82598326  .00027642  00000+0  74328-3 0  99902 68598  51.8668 290.0661 0009328 301.3869  58.6204 15.37643717  7789

JSON: /api/v1/satellites/68598 · /tle

For live sub-satellite position, see the globe view (requires WebGL).

§ Visibility from observer

Set your observer location to see the next 7 days of passes ≥ 10°. The values pass through the URL so the page stays shareable.

No JS? Fill the form by hand. The geolocation button needs JavaScript.